Sunlight Mountain, CO

12:22 PM MDT on May 26, 2017 (GMT -0600)
Sunlight Mountain

Weather History for K5SM - July, 2013

Change the Weather History Date:

Tuesday, July 23, 2013

  Actual Average (KRIL) Record (KRIL)
Temperature  
Mean Temperature 67 °F -  
Max Temperature 75 °F 87 °F 103 °F (1931)
Min Temperature 59 °F 53 °F 42 °F (1939)
Cooling Degree Days 2    
Growing Degree Days 17 (Base 50)    
Moisture  
Dew Point 18 °F    
Average Humidity 16    
Maximum Humidity 20    
Minimum Humidity 12    
Precipitation  
Precipitation 0.00 in - - ()
Sea Level Pressure  
Sea Level Pressure 30.58 in    
Wind  
Wind Speed 2 mph (North)    
Max Wind Speed 7 mph    
Max Gust Speed -    
Visibility 10 miles    
Events      
Averages and records for this station are not official NWS values.
T = Trace of Precipitation, MM = Missing Value Source: NWS Daily Summary

Daily Weather History Graph

Daily Weather History Graph

Search for Another Location

Airport or City:

Trip Planner

Search our weather history database for the weather conditions in past years. The results will help you decide how hot, cold, wet, or windy it might be!

Date:

Astronomy

Jul. 23, 2013 Rise Set
Actual Time 6:01 AM MDT 8:29 PM MDT
Civil Twilight 5:30 AM MDT 9:00 PM MDT
Nautical Twilight 4:52 AM MDT 9:38 PM MDT
Astronomical Twilight 4:10 AM MDT 10:20 PM MDT
Moon 9:00 PM MDT (7/23) 7:13 AM MDT (7/23)
Length of Visible Light 15h 29m
Length of Day
14h 28m
Full, 99% of the Moon is Illuminated
Jul 23
Full
Jul 29
Last Quarter
Aug 6
New
Aug 14
First Quarter
Aug 20
Full

Hourly Weather History & Observations

Time (MDT) Temp. Dew Point Humidity Pressure Visibility Wind Dir Wind Speed Gust Speed Precip Events Conditions
12:04 AM 68.0 °F 14.0 °F 12% 30.57 in 10.0 mi NNW 3.5 mph - N/A   Clear
12:24 AM 68.0 °F 14.0 °F 12% 30.56 in 10.0 mi Calm Calm - N/A   Clear
12:44 AM 68.0 °F 14.0 °F 12% 30.56 in 10.0 mi Calm Calm - N/A   Clear
1:04 AM 66.2 °F 12.2 °F 12% 30.56 in 10.0 mi Calm Calm - N/A   Clear
1:24 AM 64.4 °F 12.2 °F 13% 30.56 in 10.0 mi West 3.5 mph - N/A   Clear
1:44 AM 66.2 °F 14.0 °F 13% 30.56 in 10.0 mi Calm Calm - N/A   Clear
2:04 AM 64.4 °F 14.0 °F 14% 30.56 in 10.0 mi WNW 4.6 mph - N/A   Clear
2:23 AM 64.4 °F 14.0 °F 14% 30.55 in 10.0 mi WNW 3.5 mph - N/A   Clear
2:43 AM 64.4 °F 14.0 °F 14% 30.55 in 10.0 mi NW 3.5 mph - N/A   Clear
3:04 AM 62.6 °F 14.0 °F 15% 30.55 in 10.0 mi North 4.6 mph - N/A   Clear
3:24 AM 60.8 °F 14.0 °F 16% 30.55 in 10.0 mi NNE 4.6 mph - N/A   Clear
3:44 AM 60.8 °F 14.0 °F 16% 30.55 in 10.0 mi NNE 3.5 mph - N/A   Clear
4:04 AM 60.8 °F 14.0 °F 16% 30.55 in 10.0 mi NNE 3.5 mph - N/A   Clear
4:23 AM 59.0 °F 15.8 °F 19% 30.56 in 10.0 mi NNE 3.5 mph - N/A   Clear
4:44 AM 59.0 °F 15.8 °F 19% 30.56 in 10.0 mi NE 3.5 mph - N/A   Clear
5:04 AM 59.0 °F 14.0 °F 17% 30.56 in 10.0 mi NE 3.5 mph - N/A   Clear
5:24 AM 59.0 °F 12.2 °F 16% 30.56 in 10.0 mi Calm Calm - N/A   Clear
5:44 AM 59.0 °F 10.4 °F 15% 30.56 in 10.0 mi Calm Calm - N/A   Clear
6:04 AM 59.0 °F 10.4 °F 15% 30.57 in 10.0 mi Calm Calm - N/A   Clear
6:24 AM 59.0 °F 10.4 °F 15% 30.57 in 10.0 mi Calm Calm - N/A   Clear
6:44 AM 59.0 °F 10.4 °F 15% 30.57 in 10.0 mi Calm Calm - N/A   Clear
7:04 AM 59.0 °F 12.2 °F 16% 30.58 in 10.0 mi NE 3.5 mph - N/A   Clear
7:23 AM 60.8 °F 14.0 °F 16% 30.58 in 10.0 mi NE 4.6 mph - N/A   Clear
7:43 AM 60.8 °F 14.0 °F 16% 30.58 in 10.0 mi NNE 4.6 mph - N/A   Clear
8:03 AM 62.6 °F 12.2 °F 14% 30.58 in 10.0 mi NE 4.6 mph - N/A   Clear
8:23 AM 60.8 °F 14.0 °F 16% 30.59 in 10.0 mi NE 3.5 mph - N/A   Clear
8:44 AM 62.6 °F 14.0 °F 15% 30.59 in 10.0 mi NE 4.6 mph - N/A   Clear
9:04 AM 64.4 °F 14.0 °F 14% 30.60 in 10.0 mi NNE 4.6 mph - N/A   Clear
9:24 AM 64.4 °F 15.8 °F 15% 30.60 in 10.0 mi NNE 3.5 mph - N/A   Clear
9:44 AM 66.2 °F 23.0 °F 19% 30.61 in 10.0 mi North 3.5 mph - N/A   Clear
10:04 AM 66.2 °F 19.4 °F 17% 30.61 in 10.0 mi Calm Calm - N/A   Clear
10:24 AM 68.0 °F 21.2 °F 17% 30.61 in 10.0 mi Calm Calm - N/A   Clear
10:35 AM 68.0 °F 17.6 °F 15% 30.61 in 10.0 mi North 4.6 mph - N/A   Clear
11:15 AM 69.8 °F 19.4 °F 15% 30.62 in 10.0 mi WNW 4.6 mph - N/A   Clear
11:35 AM 71.6 °F 21.2 °F 15% 30.62 in 10.0 mi Calm Calm - N/A   Clear
11:55 AM 71.6 °F 23.0 °F 16% 30.62 in 10.0 mi Calm Calm - N/A   Clear
12:15 PM 69.8 °F 26.6 °F 20% 30.62 in 10.0 mi WNW 3.5 mph - N/A   Clear
12:35 PM 71.6 °F 23.0 °F 16% 30.62 in 10.0 mi Calm Calm - N/A   Clear
12:54 PM 71.6 °F 23.0 °F 16% 30.62 in 10.0 mi Calm Calm - N/A   Clear
1:15 PM 73.4 °F 23.0 °F 15% 30.61 in 10.0 mi Calm Calm - N/A   Clear
1:35 PM 71.6 °F 21.2 °F 15% 30.61 in 10.0 mi NW 3.5 mph - N/A   Clear
1:54 PM 71.6 °F 21.2 °F 15% 30.61 in 10.0 mi WNW 4.6 mph - N/A   Clear
2:15 PM 71.6 °F 21.2 °F 15% 30.60 in 10.0 mi Calm Calm - N/A   Clear
2:34 PM 71.6 °F 21.2 °F 15% 30.60 in 10.0 mi NNE 3.5 mph - N/A   Clear
2:55 PM 71.6 °F 23.0 °F 16% 30.60 in 10.0 mi Calm Calm - N/A   Clear
3:15 PM 71.6 °F 23.0 °F 16% 30.59 in 10.0 mi Calm Calm - N/A   Clear
3:35 PM 73.4 °F 21.2 °F 14% 30.59 in 10.0 mi WNW 3.5 mph - N/A   Clear
3:55 PM 75.2 °F 23.0 °F 14% 30.59 in 10.0 mi Calm Calm - N/A   Clear
4:15 PM 75.2 °F 21.2 °F 13% 30.59 in 10.0 mi NW 4.6 mph - N/A   Clear
4:35 PM 73.4 °F 21.2 °F 14% 30.58 in 10.0 mi Calm Calm - N/A   Clear
4:55 PM 73.4 °F 23.0 °F 15% 30.58 in 10.0 mi Calm Calm - N/A   Clear
5:14 PM 73.4 °F 23.0 °F 15% 30.58 in 10.0 mi NNW 6.9 mph - N/A   Clear
5:35 PM 71.6 °F 19.4 °F 14% 30.57 in 10.0 mi Calm Calm - N/A   Clear
5:55 PM 71.6 °F 23.0 °F 16% 30.57 in 10.0 mi Calm Calm - N/A   Clear
6:15 PM 69.8 °F 21.2 °F 16% 30.57 in 10.0 mi North 3.5 mph - N/A   Clear
6:35 PM 69.8 °F 21.2 °F 16% 30.56 in 10.0 mi NNW 4.6 mph - N/A   Clear
6:54 PM 68.0 °F 21.2 °F 17% 30.56 in 10.0 mi NW 5.8 mph - N/A   Clear
7:15 PM 68.0 °F 23.0 °F 18% 30.57 in 10.0 mi North 6.9 mph - N/A   Clear
7:35 PM 68.0 °F 19.4 °F 16% 30.57 in 10.0 mi North 5.8 mph - N/A   Clear
7:55 PM 66.2 °F 21.2 °F 18% 30.57 in 10.0 mi NNE 4.6 mph - N/A   Clear
8:15 PM 64.4 °F 19.4 °F 18% 30.58 in 10.0 mi Calm Calm - N/A   Clear
8:35 PM 64.4 °F 17.6 °F 16% 30.58 in 10.0 mi NE 3.5 mph - N/A   Clear
8:54 PM 64.4 °F 19.4 °F 18% 30.58 in 10.0 mi Calm Calm - N/A   Clear
9:15 PM 64.4 °F 17.6 °F 16% 30.59 in 10.0 mi Calm Calm - N/A   Clear
9:35 PM 62.6 °F 19.4 °F 19% 30.60 in 10.0 mi Calm Calm - N/A   Clear
9:55 PM 62.6 °F 19.4 °F 19% 30.61 in 10.0 mi Calm Calm - N/A   Clear
10:15 PM 62.6 °F 19.4 °F 19% 30.61 in 10.0 mi Calm Calm - N/A   Clear
10:35 PM 62.6 °F 19.4 °F 19% 30.61 in 10.0 mi ENE 3.5 mph - N/A   Clear
10:55 PM 62.6 °F 19.4 °F 19% 30.60 in 10.0 mi Calm Calm - N/A   Clear
11:15 PM 64.4 °F 19.4 °F 18% 30.60 in 10.0 mi Calm Calm - N/A   Clear
11:35 PM 64.4 °F 17.6 °F 16% 30.60 in 10.0 mi Calm Calm - N/A   Clear
11:55 PM 64.4 °F 19.4 °F 18% 30.60 in 10.0 mi SE 3.5 mph - N/A   Clear